Total_Precipitation_Accumulation
0.04 0.03 0.03 0.03 0.02 0.01 0.00 0.00 0.00 0.00 0.00 0.00 0.00 0.00 0.00 0.00 0.00 0.00 0.01 0.01 0.02 0.03 0.06 0.16 0.23 0.23 0.25 0.28 0.25 0.21 0.17 0.16 0.16 0.16 0.18 0.18 0.19 0.20 0.22 0.23 0.23 0.25 0.26 0.27 0.26 0.25 0.27 0.23 0.23
0.04 0.04 0.05 0.08 0.04 0.01 0.00 0.00 0.00 0.00 0.00 0.00 0.00 0.00 0.00 0.00 0.00 0.00 0.00 0.00 0.01 0.02 0.04 0.10 0.18 0.22 0.25 0.27 0.26 0.23 0.19 0.18 0.17 0.18 0.19 0.19 0.19 0.17 0.17 0.18 0.20 0.24 0.26 0.30 0.28 0.26 0.28 0.24 0.21
0.07 0.06 0.07 0.07 0.03 0.01 0.00 0.00 0.00 0.00 0.00 0.00 0.00 0.00 0.00 0.00 0.00 0.00 0.00 0.00 0.00 0.01 0.03 0.09 0.18 0.23 0.27 0.29 0.28 0.27 0.24 0.22 0.22 0.21 0.21 0.21 0.20 0.17 0.16 0.15 0.15 0.22 0.27 0.29 0.31 0.29 0.29 0.27 0.25
0.11 0.13 0.11 0.06 0.01 0.00 0.00 0.00 0.00 0.00 0.00 0.00 0.00 0.00 0.00 0.00 0.00 0.00 0.00 0.00 0.01 0.01 0.03 0.09 0.19 0.26 0.29 0.31 0.33 0.30 0.28 0.28 0.26 0.24 0.25 0.25 0.24 0.20 0.17 0.15 0.13 0.14 0.19 0.25 0.29 0.31 0.33 0.33 0.27
0.14 0.16 0.14 0.06 0.01 0.00 0.00 0.00 0.00 0.00 0.00 0.00 0.00 0.00 0.00 0.00 0.00 0.00 0.00 0.01 0.01 0.02 0.04 0.11 0.22 0.29 0.31 0.34 0.36 0.34 0.34 0.34 0.31 0.29 0.29 0.28 0.27 0.24 0.23 0.18 0.14 0.12 0.12 0.17 0.22 0.25 0.31 0.34 0.29
0.20 0.17 0.11 0.05 0.02 0.01 0.00 0.00 0.00 0.00 0.00 0.00 0.00 0.00 0.00 0.00 0.00 0.00 0.00 0.01 0.01 0.02 0.06 0.13 0.25 0.33 0.36 0.39 0.42 0.40 0.41 0.44 0.41 0.38 0.34 0.31 0.30 0.28 0.27 0.21 0.18 0.16 0.14 0.14 0.16 0.20 0.26 0.31 0.32
0.18 0.16 0.08 0.04 0.02 0.01 0.00 0.00 0.01 0.01 0.00 0.00 0.00 0.00 0.00 0.00 0.00 0.00 0.01 0.02 0.03 0.03 0.06 0.12 0.23 0.33 0.40 0.45 0.46 0.45 0.43 0.47 0.46 0.43 0.39 0.36 0.34 0.34 0.34 0.27 0.21 0.19 0.18 0.16 0.13 0.12 0.14 0.20 0.29
0.15 0.18 0.10 0.04 0.02 0.02 0.01 0.01 0.01 0.01 0.01 0.00 0.01 0.01 0.01 0.01 0.01 0.01 0.01 0.03 0.05 0.07 0.09 0.15 0.25 0.32 0.38 0.44 0.48 0.47 0.44 0.48 0.49 0.48 0.45 0.41 0.40 0.39 0.37 0.30 0.22 0.20 0.20 0.17 0.14 0.12 0.10 0.11 0.13
0.23 0.24 0.11 0.04 0.03 0.02 0.02 0.02 0.02 0.02 0.03 0.02 0.01 0.01 0.01 0.01 0.02 0.03 0.05 0.07 0.09 0.11 0.12 0.17 0.28 0.36 0.41 0.44 0.44 0.51 0.53 0.55 0.53 0.52 0.46 0.43 0.39 0.34 0.29 0.25 0.24 0.22 0.19 0.15 0.14 0.14 0.12 0.09 0.05
0.29 0.24 0.09 0.04 0.03 0.04 0.04 0.04 0.05 0.05 0.04 0.03 0.03 0.02 0.02 0.03 0.04 0.05 0.06 0.08 0.10 0.12 0.14 0.19 0.28 0.35 0.43 0.46 0.49 0.57 0.57 0.56 0.54 0.49 0.47 0.43 0.39 0.34 0.29 0.26 0.26 0.26 0.21 0.17 0.17 0.16 0.12 0.08 0.05
0.25 0.19 0.09 0.05 0.05 0.05 0.05 0.05 0.06 0.07 0.06 0.04 0.04 0.04 0.05 0.05 0.06 0.07 0.06 0.07 0.10 0.13 0.17 0.21 0.28 0.36 0.45 0.49 0.50 0.53 0.54 0.53 0.55 0.55 0.52 0.49 0.45 0.42 0.41 0.38 0.37 0.29 0.23 0.22 0.21 0.21 0.19 0.18 0.18
0.18 0.13 0.09 0.08 0.08 0.08 0.07 0.06 0.06 0.06 0.05 0.05 0.05 0.04 0.06 0.07 0.07 0.08 0.09 0.08 0.11 0.16 0.20 0.25 0.32 0.39 0.45 0.50 0.55 0.54 0.53 0.52 0.50 0.53 0.54 0.50 0.45 0.42 0.41 0.40 0.36 0.31 0.26 0.23 0.22 0.20 0.18 0.18 0.16
0.15 0.10 0.09 0.09 0.11 0.11 0.10 0.07 0.06 0.05 0.03 0.03 0.04 0.04 0.06 0.08 0.09 0.10 0.12 0.12 0.15 0.19 0.23 0.28 0.35 0.41 0.46 0.53 0.57 0.60 0.57 0.53 0.48 0.48 0.49 0.49 0.45 0.39 0.33 0.29 0.26 0.24 0.22 0.18 0.13 0.10 0.10 0.10 0.11
0.14 0.11 0.09 0.09 0.12 0.12 0.11 0.08 0.05 0.03 0.02 0.03 0.03 0.04 0.05 0.07 0.09 0.11 0.15 0.17 0.17 0.19 0.23 0.28 0.35 0.43 0.48 0.52 0.53 0.55 0.59 0.57 0.53 0.48 0.44 0.44 0.43 0.39 0.37 0.32 0.28 0.25 0.20 0.16 0.12 0.09 0.06 0.04 0.04
0.15 0.16 0.13 0.09 0.10 0.12 0.15 0.11 0.04 0.01 0.02 0.04 0.04 0.04 0.04 0.05 0.08 0.09 0.12 0.15 0.16 0.19 0.24 0.33 0.37 0.45 0.52 0.55 0.57 0.56 0.58 0.59 0.57 0.54 0.52 0.47 0.42 0.37 0.37 0.36 0.32 0.27 0.24 0.19 0.15 0.12 0.08 0.05 0.03
0.22 0.27 0.20 0.09 0.07 0.10 0.21 0.17 0.03 0.01 0.02 0.04 0.05 0.05 0.04 0.05 0.06 0.08 0.09 0.13 0.17 0.23 0.28 0.37 0.42 0.46 0.54 0.61 0.64 0.61 0.60 0.60 0.60 0.57 0.58 0.54 0.49 0.44 0.42 0.39 0.36 0.30 0.27 0.25 0.21 0.17 0.12 0.08 0.06
0.34 0.29 0.16 0.08 0.06 0.11 0.20 0.15 0.04 0.01 0.02 0.03 0.04 0.05 0.05 0.04 0.05 0.07 0.09 0.10 0.15 0.22 0.28 0.38 0.47 0.47 0.49 0.61 0.68 0.69 0.67 0.66 0.64 0.61 0.59 0.56 0.52 0.48 0.45 0.43 0.40 0.38 0.35 0.32 0.29 0.24 0.18 0.13 0.09
0.29 0.20 0.12 0.09 0.09 0.12 0.15 0.10 0.03 0.02 0.04 0.03 0.03 0.04 0.05 0.05 0.04 0.05 0.10 0.12 0.15 0.22 0.28 0.36 0.49 0.52 0.53 0.63 0.73 0.76 0.77 0.74 0.72 0.67 0.61 0.58 0.54 0.49 0.44 0.42 0.39 0.37 0.36 0.33 0.29 0.24 0.17 0.13 0.10
0.17 0.19 0.17 0.10 0.09 0.16 0.16 0.10 0.04 0.02 0.04 0.04 0.03 0.03 0.04 0.04 0.03 0.04 0.08 0.14 0.18 0.22 0.27 0.34 0.50 0.55 0.62 0.67 0.72 0.72 0.70 0.72 0.71 0.68 0.66 0.61 0.59 0.56 0.52 0.47 0.43 0.38 0.34 0.31 0.27 0.24 0.21 0.16 0.12
0.22 0.24 0.18 0.12 0.11 0.18 0.17 0.10 0.04 0.02 0.03 0.03 0.03 0.03 0.03 0.03 0.03 0.04 0.06 0.11 0.18 0.21 0.23 0.28 0.43 0.54 0.59 0.61 0.63 0.63 0.62 0.65 0.69 0.66 0.68 0.68 0.65 0.65 0.59 0.51 0.48 0.43 0.38 0.33 0.29 0.25 0.24 0.21 0.17
0.21 0.19 0.15 0.14 0.14 0.18 0.18 0.12 0.03 0.02 0.02 0.02 0.03 0.03 0.03 0.02 0.03 0.03 0.04 0.07 0.13 0.18 0.20 0.25 0.35 0.49 0.56 0.61 0.73 0.77 0.80 0.83 0.84 0.77 0.70 0.67 0.69 0.69 0.70 0.61 0.51 0.46 0.42 0.38 0.32 0.26 0.24 0.25 0.20
0.21 0.11 0.12 0.16 0.28 0.28 0.21 0.21 0.04 0.01 0.01 0.02 0.02 0.03 0.02 0.02 0.02 0.03 0.03 0.04 0.09 0.14 0.18 0.23 0.34 0.46 0.55 0.63 0.72 0.77 0.75 0.77 0.76 0.71 0.67 0.63 0.64 0.68 0.67 0.68 0.62 0.52 0.45 0.41 0.37 0.30 0.26 0.28 0.27
0.19 0.09 0.13 0.19 0.31 0.37 0.24 0.27 0.07 0.02 0.03 0.02 0.02 0.02 0.02 0.01 0.02 0.02 0.02 0.03 0.06 0.13 0.19 0.23 0.32 0.46 0.57 0.66 0.67 0.70 0.68 0.64 0.67 0.75 0.76 0.72 0.68 0.67 0.68 0.66 0.66 0.60 0.51 0.44 0.41 0.38 0.33 0.34 0.35
0.23 0.22 0.26 0.31 0.52 0.68 0.24 0.22 0.10 0.06 0.05 0.04 0.02 0.02 0.02 0.02 0.02 0.02 0.02 0.03 0.05 0.13 0.21 0.28 0.32 0.40 0.56 0.69 0.71 0.68 0.65 0.65 0.69 0.75 0.80 0.83 0.79 0.72 0.67 0.66 0.62 0.60 0.54 0.46 0.41 0.40 0.39 0.39 0.38
0.44 0.65 1.00 1.01 0.98 0.57 0.10 0.14 0.13 0.06 0.05 0.05 0.05 0.04 0.03 0.03 0.03 0.03 0.04 0.05 0.06 0.11 0.19 0.27 0.34 0.37 0.46 0.65 0.73 0.70 0.66 0.64 0.63 0.70 0.74 0.77 0.82 0.80 0.71 0.65 0.60 0.55 0.52 0.50 0.46 0.42 0.39 0.38 0.41
0.50 0.69 0.90 0.78 0.45 0.15 0.05 0.09 0.11 0.05 0.04 0.03 0.04 0.05 0.04 0.04 0.04 0.04 0.04 0.06 0.07 0.10 0.17 0.25 0.34 0.39 0.43 0.54 0.67 0.71 0.73 0.70 0.64 0.64 0.70 0.73 0.73 0.75 0.74 0.71 0.63 0.53 0.48 0.48 0.50 0.46 0.40 0.39 0.41
0.38 0.50 0.47 0.59 0.38 0.21 0.11 0.07 0.07 0.04 0.03 0.02 0.02 0.03 0.05 0.05 0.06 0.06 0.05 0.06 0.08 0.10 0.15 0.20 0.30 0.42 0.45 0.46 0.59 0.70 0.77 0.76 0.67 0.61 0.64 0.69 0.71 0.72 0.77 0.76 0.70 0.61 0.53 0.49 0.47 0.46 0.43 0.43 0.42
0.31 0.36 0.55 0.88 0.76 0.34 0.12 0.07 0.09 0.07 0.05 0.03 0.02 0.03 0.04 0.06 0.07 0.07 0.07 0.07 0.08 0.09 0.13 0.18 0.23 0.36 0.49 0.49 0.52 0.67 0.75 0.79 0.76 0.68 0.64 0.61 0.62 0.67 0.77 0.80 0.71 0.68 0.62 0.55 0.50 0.46 0.44 0.46 0.45
0.35 0.46 0.66 0.81 0.67 0.44 0.21 0.12 0.13 0.08 0.06 0.06 0.05 0.04 0.05 0.06 0.08 0.09 0.11 0.10 0.10 0.10 0.12 0.18 0.23 0.32 0.46 0.55 0.53 0.58 0.71 0.77 0.80 0.78 0.68 0.61 0.58 0.59 0.65 0.75 0.76 0.72 0.69 0.64 0.60 0.56 0.54 0.52 0.49
0.34 0.40 0.51 0.76 0.63 0.38 0.28 0.13 0.09 0.07 0.05 0.06 0.06 0.05 0.05 0.06 0.08 0.10 0.15 0.14 0.12 0.14 0.15 0.18 0.20 0.27 0.37 0.51 0.58 0.58 0.66 0.78 0.80 0.72 0.67 0.66 0.60 0.57 0.58 0.66 0.77 0.79 0.75 0.69 0.65 0.64 0.68 0.73 0.69